Portada
METAR-TAF:

METAR-TAF

Aeroports :

Lawrence Municipal Airport

Lawrence, Massachusetts, Estats Units d'Amèrica

latitud: 42-42-47N, longitud: 071-07-33W, altitud: 45 m

Observació

L'informe es va fer fa 23 minuts, a les 23:54 UTC
Vent 6 kt del Est/Nord-Est
Temperatura 7°C
Humitat 81%
Pressió 1009 hPa
Visibilitat: 16.1 km
Cel ennuvolat a una alçada de 6000 ft
Cel cobert a una alçada de 7500 ft

METAR: KLWM 152354Z 07006KT 10SM BKN060 OVC075 07/04 A2981 RMK AO2 RAE46 SLP095 P0000 60001 T00670039 10106 20067 55005

Hora: 20:17 (00:17 UTC)


TAF: manca

Observacions i pronòstics meteorològics de més de 4000 aeroports (METAR i TAF).

Les estacions disponibles són els punts grocs i vermells al mapa.

Posi el ratolí al punt desitjat per veure el nom de l'estació.

Feu clic per veure les observacions i els pronòstics meteorològics.

Per canviar el mapa: feu clic els botons verds amb una creu de color negre per apropar; al botó verd amb un guió per allunyar la imatge; o en les fletxes verdes per a mapes adjacents.


METAR-TAF: